| time (UTC) | temp F | wind direction | speed knots | gust knots | rain 1hr in | rain 24hr in | rain mn in | humidity % | barometer mb |
| 20260507213037 | 56 | 221 | 2.6 | 9.6 | 0.00 | 0.00 | 0.00 | 33 | 1005.0 |
| 20260507211536 | 58 | 308 | 2.6 | 9.6 | 0.00 | 0.00 | 0.00 | 33 | 1004.8 |
| 20260507210039 | 58 | 266 | 2.6 | 8.7 | 0.00 | 0.00 | 0.00 | 33 | 1005.0 |
| 20260507204535 | 58 | 211 | 0.0 | 11.3 | 0.00 | 0.00 | 0.00 | 33 | 1004.9 |
| 20260507203104 | 57 | 182 | 2.6 | 10.4 | 0.00 | 0.00 | 0.00 | 33 | 1004.9 |
| 20260507201534 | 58 | 252 | 1.7 | 7.8 | 0.00 | 0.00 | 0.00 | 33 | 1004.9 |
| 20260507200034 | 58 | 116 | 0.0 | 10.4 | 0.00 | 0.00 | 0.00 | 34 | 1004.9 |
| 20260507194534 | 59 | 194 | 0.9 | 9.6 | 0.00 | 0.00 | 0.00 | 33 | 1004.9 |
| 20260507193030 | 58 | 271 | 3.5 | 8.7 | 0.00 | 0.00 | 0.00 | 33 | 1005.0 |
| 20260507191532 | 58 | 175 | 1.7 | 8.7 | 0.00 | 0.00 | 0.00 | 34 | 1005.2 |
| 20260507190025 | 57 | 282 | 2.6 | 12.2 | 0.00 | 0.00 | 0.00 | 34 | 1005.4 |
| 20260507184525 | 58 | 228 | 1.7 | 7.8 | 0.00 | 0.00 | 0.00 | 34 | 1005.5 |
| 20260507183025 | 57 | 280 | 1.7 | 10.4 | 0.00 | 0.00 | 0.00 | 34 | 1005.5 |
| 20260507181522 | 57 | 192 | 2.6 | 7.0 | 0.00 | 0.00 | 0.00 | 33 | 1005.6 |
| 20260507180024 | 58 | 180 | 0.9 | 9.6 | 0.00 | 0.00 | 0.00 | 34 | 1005.7 |
| 20260507174523 | 55 | 216 | 1.7 | 9.6 | 0.00 | 0.00 | 0.00 | 34 | 1005.7 |
| 20260507173039 | 55 | 173 | 0.9 | 7.0 | 0.00 | 0.00 | 0.00 | 34 | 1005.9 |
| 20260507171523 | 54 | 243 | 3.5 | 8.7 | 0.00 | 0.00 | 0.00 | 34 | 1006.1 |
| 20260507170015 | 55 | 236 | 0.9 | 9.6 | 0.00 | 0.00 | 0.00 | 34 | 1006.3 |
| 20260507164517 | 55 | 244 | 2.6 | 12.2 | 0.00 | 0.00 | 0.00 | 35 | 1006.5 |
| 20260507163011 | 55 | 257 | 1.7 | 12.2 | 0.00 | 0.00 | 0.00 | 34 | 1006.6 |
| 20260507161512 | 55 | 325 | 2.6 | 10.4 | 0.00 | 0.00 | 0.00 | 35 | 1006.7 |
| 20260507160011 | 54 | 216 | 3.5 | 9.6 | 0.00 | 0.00 | 0.00 | 35 | 1006.8 |
| 20260507154508 | 54 | 215 | 2.6 | 8.7 | 0.00 | 0.00 | 0.00 | 35 | 1007.0 |
| 20260507153006 | 54 | 311 | 2.6 | 7.0 | 0.00 | 0.00 | 0.00 | 35 | 1006.9 |
| 20260507151501 | 53 | 225 | 2.6 | 9.6 | 0.00 | 0.00 | 0.00 | 35 | 1007.1 |
| 20260507150101 | 52 | 252 | 0.9 | 4.3 | 0.00 | 0.00 | 0.00 | 36 | 1007.1 |
| 20260507144617 | 52 | 61 | 1.7 | 7.8 | 0.00 | 0.00 | 0.00 | 36 | 1007.0 |
| 20260507143102 | 51 | 225 | 0.0 | 7.8 | 0.00 | 0.00 | 0.00 | 37 | 1007.0 |
| 20260507141601 | 50 | 307 | 0.0 | 3.5 | 0.00 | 0.00 | 0.00 | 37 | 1007.0 |
| 20260507140053 | 50 | 229 | 0.9 | 3.5 | 0.00 | 0.00 | 0.00 | 37 | 1006.9 |
| 20260507134555 | 50 | 271 | 1.7 | 5.2 | 0.00 | 0.00 | 0.00 | 37 | 1006.9 |
| 20260507133134 | 49 | 240 | 0.9 | 3.5 | 0.00 | 0.00 | 0.00 | 37 | 1007.0 |
| 20260507131550 | 50 | 252 | 2.6 | 7.0 | 0.00 | 0.00 | 0.00 | 37 | 1007.2 |
| 20260507130100 | 50 | 169 | 0.0 | 7.0 | 0.00 | 0.00 | 0.00 | 38 | 1007.4 |
| 20260507124549 | 49 | 263 | 2.6 | 8.7 | 0.00 | 0.00 | 0.00 | 38 | 1007.2 |
| 20260507123048 | 48 | 244 | 0.9 | 7.0 | 0.00 | 0.00 | 0.00 | 38 | 1007.0 |
| 20260507121542 | 47 | 300 | 0.0 | 3.5 | 0.00 | 0.00 | 0.00 | 38 | 1007.0 |
| 20260507120039 | 46 | 244 | 1.7 | 6.1 | 0.00 | 0.00 | 0.00 | 39 | 1007.2 |
| 20260507114550 | 46 | 232 | 0.9 | 4.3 | 0.00 | 0.00 | 0.00 | 39 | 1007.2 |
| 20260507113039 | 44 | 186 | 0.0 | 5.2 | 0.00 | 0.00 | 0.00 | 39 | 1007.1 |
| 20260507111534 | 43 | 119 | 0.0 | 1.7 | 0.00 | 0.00 | 0.00 | 40 | 1007.1 |
| 20260507110040 | 43 | 111 | 0.0 | 2.6 | 0.00 | 0.00 | 0.00 | 40 | 1007.1 |
| 20260507104532 | 41 | 289 | 0.0 | 1.7 | 0.00 | 0.00 | 0.00 | 40 | 1006.9 |
| 20260507103038 | 40 | 288 | 0.0 | 0.0 | 0.00 | 0.00 | 0.00 | 40 | 1006.9 |
| 20260507101535 | 41 | 288 | 0.0 | 0.9 | 0.00 | 0.00 | 0.00 | 40 | 1006.8 |
| 20260507100026 | 41 | 248 | 0.0 | 1.7 | 0.00 | 0.00 | 0.00 | 39 | 1006.8 |
| 20260507094526 | 42 | 248 | 0.0 | 1.7 | 0.00 | 0.00 | 0.00 | 39 | 1006.9 |
| 20260507093023 | 42 | 204 | 0.0 | 1.7 | 0.00 | 0.00 | 0.00 | 39 | 1006.9 |
| 20260507091525 | 43 | 203 | 0.0 | 2.6 | 0.00 | 0.00 | 0.00 | 39 | 1007.1 |
| 20260507090018 | 43 | 234 | 0.9 | 6.1 | 0.00 | 0.00 | 0.00 | 39 | 1006.7 |
| 20260507084520 | 43 | 236 | 0.9 | 3.5 | 0.00 | 0.00 | 0.00 | 39 | 1006.8 |
| 20260507083017 | 43 | 168 | 0.0 | 3.5 | 0.00 | 0.00 | 0.00 | 39 | 1006.8 |
| 20260507081516 | 43 | 215 | 1.7 | 6.1 | 0.00 | 0.00 | 0.00 | 39 | 1006.4 |
| 20260507080014 | 44 | 226 | 0.0 | 3.5 | 0.00 | 0.00 | 0.00 | 39 | 1006.8 |
| 20260507074511 | 44 | 272 | 0.9 | 3.5 | 0.00 | 0.00 | 0.00 | 39 | 1006.6 |
| 20260507073010 | 44 | 300 | 0.0 | 1.7 | 0.00 | 0.00 | 0.00 | 39 | 1006.7 |
| 20260507071512 | 44 | 175 | 0.0 | 7.0 | 0.00 | 0.00 | 0.00 | 39 | 1006.2 |
| 20260507070012 | 45 | 227 | 0.0 | 2.6 | 0.00 | 0.00 | 0.00 | 39 | 1005.8 |
| 20260507064510 | 45 | 226 | 1.7 | 7.8 | 0.00 | 0.00 | 0.00 | 39 | 1006.2 |
| 20260507063007 | 45 | 178 | 0.0 | 4.3 | 0.00 | 0.00 | 0.00 | 39 | 1006.0 |
| 20260507061503 | 45 | 245 | 0.9 | 5.2 | 0.00 | 0.00 | 0.00 | 39 | 1006.3 |
| 20260507060002 | 46 | 248 | 0.9 | 6.1 | 0.00 | 0.00 | 0.00 | 39 | 1005.9 |
| 20260507054500 | 46 | 161 | 1.7 | 7.0 | 0.00 | 0.00 | 0.00 | 39 | 1006.3 |
| 20260507053125 | 46 | 142 | 1.7 | 10.4 | 0.00 | 0.00 | 0.00 | 39 | 1006.1 |
| 20260507051556 | 46 | 246 | 0.9 | 8.7 | 0.00 | 0.00 | 0.00 | 39 | 1005.7 |
| 20260507050054 | 46 | 252 | 1.7 | 7.0 | 0.00 | 0.00 | 0.00 | 39 | 1006.0 |
| 20260507044608 | 46 | 173 | 1.7 | 6.1 | 0.00 | 0.00 | 0.00 | 39 | 1006.0 |
| 20260507043052 | 46 | 200 | 0.0 | 3.5 | 0.00 | 0.00 | 0.00 | 39 | 1006.2 |
| 20260507041553 | 46 | 161 | 0.0 | 4.3 | 0.00 | 0.00 | 0.00 | 39 | 1006.1 |
| 20260507040048 | 46 | 225 | 0.0 | 7.8 | 0.00 | 0.00 | 0.00 | 39 | 1005.9 |
| 20260507034547 | 46 | 198 | 2.6 | 7.8 | 0.00 | 0.00 | 0.00 | 39 | 1006.1 |
| 20260507033059 | 47 | 198 | 0.9 | 5.2 | 0.00 | 0.00 | 0.00 | 39 | 1005.9 |
| 20260507031556 | 47 | 199 | 0.9 | 6.1 | 0.00 | 0.00 | 0.00 | 39 | 1005.9 |
| 20260507024602 | 47 | 209 | 1.7 | 9.6 | 0.00 | 0.00 | 0.00 | 39 | 1005.9 |
| 20260507023041 | 48 | 271 | 2.6 | 11.3 | 0.00 | 0.00 | 0.00 | 39 | 1005.7 |
| 20260507021547 | 48 | 236 | 3.5 | 11.3 | 0.00 | 0.00 | 0.00 | 39 | 1005.7 |
| 20260507020051 | 49 | 233 | 4.3 | 10.4 | 0.00 | 0.00 | 0.00 | 39 | 1005.4 |
| 20260507014542 | 50 | 201 | 1.7 | 9.6 | 0.00 | 0.00 | 0.00 | 39 | 1005.1 |
| 20260507013038 | 51 | 255 | 0.9 | 9.6 | 0.00 | 0.00 | 0.00 | 40 | 1005.0 |
| 20260507011534 | 52 | 237 | 0.9 | 8.7 | 0.00 | 0.00 | 0.00 | 40 | 1004.7 |
| 20260507010035 | 53 | 261 | 0.9 | 3.5 | 0.00 | 0.00 | 0.00 | 40 | 1004.7 |
| 20260507004528 | 54 | 259 | 0.9 | 4.3 | 0.00 | 0.00 | 0.00 | 40 | 1004.4 |
| 20260507003028 | 54 | 306 | 0.0 | 7.0 | 0.00 | 0.00 | 0.00 | 40 | 1004.0 |
| 20260507001533 | 56 | 47 | 0.9 | 5.2 | 0.00 | 0.00 | 0.00 | 40 | 1003.8 |
| 20260507000027 | 58 | 350 | 2.6 | 7.0 | 0.00 | 0.00 | 0.00 | 40 | 1003.5 |
| 20260506234526 | 59 | 162 | 0.0 | 1.7 | 0.00 | 0.00 | 0.00 | 40 | 1003.0 |
| 20260506233026 | 59 | 164 | 0.0 | 1.7 | 0.00 | 0.00 | 0.00 | 40 | 1003.0 |
| 20260506231525 | 59 | 163 | 0.0 | 0.9 | 0.00 | 0.00 | 0.00 | 40 | 1003.0 |
| 20260506230024 | 59 | 162 | 0.0 | 5.2 | 0.00 | 0.00 | 0.00 | 40 | 1002.9 |
| 20260506224526 | 59 | 22 | 0.9 | 5.2 | 0.00 | 0.00 | 0.00 | 40 | 1002.8 |
| 20260506223024 | 59 | 190 | 0.9 | 5.2 | 0.00 | 0.00 | 0.00 | 40 | 1003.0 |
| 20260506221523 | 59 | 46 | 0.9 | 4.3 | 0.00 | 0.00 | 0.00 | 40 | 1002.8 |
| 20260506220021 | 59 | 74 | 0.9 | 5.2 | 0.00 | 0.00 | 0.00 | 40 | 1002.9 |
| 20260506214521 | 59 | 61 | 0.9 | 5.2 | 0.00 | 0.00 | 0.00 | 40 | 1002.9 |